Flag for Brazil Weather past 2 weeks in Niterói, Rio de Janeiro, Brazil

Now
82 °F

Sunny.


Feels Like: 89 °F
Forecast: 79 / 93 °F
Wind: 6 mph from Northeast

Location: Rio De Janeiro Airport

Current Time: Jan 29, 2015 at 8:24:33 AM

Latest Report: Jan 29, 2015 at 8:00 AM


Visibility: 10 mi

Pressure: 29.86 "Hg

Humidity: 79%

Dew point: 75 °F

Location of NiteróiLocation

Historic Weather in Niterói — Graph

°F

Niterói temperature yesterday

Maximum temperature yesterday: 95 °F (at 3:00 PM)
Minimum temperature yesterday: 79 °F (at 6:00 AM)
Average temperature yesterday: 85 °F

Past Weeks' High & Low Weather Summary

 TemperatureHumidityPressure
High97 °F (Jan 14, 1:00 PM)100% (Jan 22, 9:00 PM)30.01 "Hg (Jan 22, 9:00 PM)
Low39 °F (Jan 22, 11:00 PM)32% (Jan 21, 5:00 PM)29.80 "Hg (Jan 20, 3:00 PM)
Average86 °F66%29.90 "Hg
* Reported Jan 14 7:00 AM — Jan 29 7:00 AM, Niterói, Weather by CustomWeather, © 2014

Note: Actual official high and low records may vary slightly from our data, if they occured in-between our weather recording intervals... More about our weather records

Advertising

Niterói weather history for previous 24 hours

 ConditionsComfort  
Time TempWeatherWind HumidityBarometerVisibility
7:00 AM
Jan 29
79 °FSunny.8 mph89%29.86 "Hg10 mi
6:00 AM79 °FClear.6 mph84%29.86 "Hg10 mi
11:00 PM
Jan 28
81 °FPassing clouds.8 mph84%29.92 "HgN/A
10:00 PM79 °FPassing clouds.7 mph84%29.89 "HgN/A
9:00 PM79 °FPartly cloudy.2 mph84%29.86 "HgN/A
8:00 PM81 °FPassing clouds.12 mph74%29.86 "HgN/A
7:00 PM81 °FBroken clouds.16 mph79%29.86 "HgN/A
6:00 PM90 °FThunderstorms. Broken clouds.12 mphN/AN/A6 mi
5:00 PM90 °FScattered clouds.15 mph63%29.80 "HgN/A
4:00 PM91 °FScattered clouds.14 mph56%29.83 "HgN/A
3:00 PM95 °FPassing clouds.14 mph53%29.83 "HgN/A
2:00 PM93 °FPassing clouds.15 mph59%29.86 "HgN/A
1:00 PM93 °FScattered clouds.6 mph49%29.89 "HgN/A
12:00 PM90 °FSunny.6 mph63%29.92 "Hg10 mi
11:00 AM88 °FSunny.6 mph66%29.92 "Hg10 mi
10:00 AM84 °FPartly sunny.8 mph74%29.92 "HgN/A
9:00 AM82 °FPartly sunny.6 mph79%29.92 "HgN/A
8:00 AM81 °FPartly sunny.7 mph84%29.92 "HgN/A
Weather by CustomWeather, © 2014

See weather overviewHow to use our weather pages